TimeEST,TemperatureF,Dew PointF,Humidity,Sea Level PressureIn,VisibilityMPH,Wind Direction,Wind SpeedMPH,Gust SpeedMPH,PrecipitationIn,Events,Conditions,WindDirDegrees,DateUTC
12:14 AM,24.1,15.6,70,30.28,10.0,West,12.7,-,N/A,,Clear,260,2013-01-05 05:14:00
12:34 AM,23.7,15.6,71,30.28,10.0,West,12.7,-,N/A,,Clear,270,2013-01-05 05:34:00
12:54 AM,23.2,15.8,73,30.28,10.0,West,9.2,-,N/A,,Clear,260,2013-01-05 05:54:00
1:13 AM,22.5,15.4,74,30.28,10.0,WSW,6.9,-,N/A,,Clear,250,2013-01-05 06:13:00
1:34 AM,22.1,15.6,76,30.29,10.0,WSW,9.2,-,N/A,,Clear,250,2013-01-05 06:34:00
1:54 AM,22.6,15.8,75,30.29,10.0,West,9.2,-,N/A,,Clear,260,2013-01-05 06:54:00
2:13 AM,21.6,15.4,77,30.29,10.0,WSW,6.9,-,N/A,,Clear,250,2013-01-05 07:13:00
2:34 AM,21.0,15.4,79,30.29,10.0,SW,4.6,-,N/A,,Clear,230,2013-01-05 07:34:00
2:54 AM,18.7,14.2,83,30.30,10.0,WSW,5.8,-,N/A,,Clear,240,2013-01-05 07:54:00
3:13 AM,19.2,14.7,83,30.30,10.0,WSW,8.1,-,N/A,,Clear,250,2013-01-05 08:13:00
3:34 AM,20.8,15.8,81,30.30,10.0,SSW,4.6,-,N/A,,Clear,210,2013-01-05 08:34:00
3:54 AM,21.2,16.2,81,30.29,10.0,Calm,Calm,-,N/A,,Clear,0,2013-01-05 08:54:00
4:14 AM,14.2,10.2,84,30.29,7.0,SSW,3.5,-,N/A,,Clear,200,2013-01-05 09:14:00
4:34 AM,13.6,11.3,90,30.31,7.0,SW,8.1,-,N/A,,Clear,220,2013-01-05 09:34:00
4:54 AM,14.5,10.6,84,30.31,7.0,SW,8.1,-,N/A,,Clear,230,2013-01-05 09:54:00
5:14 AM,14.5,12.0,90,30.30,7.0,SW,4.6,-,N/A,,Clear,220,2013-01-05 10:14:00
5:34 AM,14.5,12.0,90,30.30,7.0,SSW,3.5,-,N/A,,Clear,200,2013-01-05 10:34:00
5:54 AM,13.3,11.1,91,30.31,5.0,SSW,3.5,-,N/A,,Clear,200,2013-01-05 10:54:00
6:14 AM,16.7,14.9,93,30.32,5.0,SW,6.9,-,N/A,,Clear,220,2013-01-05 11:14:00
6:34 AM,16.3,14.2,91,30.31,7.0,SSW,4.6,-,N/A,,Clear,200,2013-01-05 11:34:00
6:53 AM,13.6,11.7,92,30.31,5.0,South,4.6,-,N/A,,Clear,190,2013-01-05 11:53:00
7:14 AM,9.3,6.8,89,30.33,3.0,SW,3.5,-,N/A,,Clear,220,2013-01-05 12:14:00
7:34 AM,9.5,7.2,90,30.33,4.0,SW,3.5,-,N/A,,Clear,220,2013-01-05 12:34:00
7:53 AM,12.2,9.7,90,30.33,2.5,SSW,4.6,-,N/A,,Clear,200,2013-01-05 12:53:00
8:14 AM,10.6,8.4,91,30.33,2.5,South,5.8,-,N/A,,Clear,190,2013-01-05 13:14:00
8:34 AM,16.7,14.7,92,30.33,5.0,South,5.8,-,N/A,,Clear,190,2013-01-05 13:34:00
8:53 AM,16.3,13.6,89,30.32,5.0,South,3.5,-,N/A,,Clear,180,2013-01-05 13:53:00
9:14 AM,16.7,14.5,91,30.31,5.0,South,4.6,-,N/A,,Clear,180,2013-01-05 14:14:00
9:34 AM,18.3,16.2,91,30.32,5.0,South,3.5,-,N/A,,Clear,190,2013-01-05 14:34:00
9:54 AM,20.3,18.0,91,30.32,5.0,SSW,6.9,-,N/A,,Clear,200,2013-01-05 14:54:00
10:14 AM,21.6,17.6,85,30.33,7.0,SSW,6.9,-,N/A,,Clear,200,2013-01-05 15:14:00
10:54 AM,23.9,18.1,79,30.32,7.0,South,5.8,-,N/A,,Clear,190,2013-01-05 15:54:00
11:14 AM,25.3,18.7,76,30.32,7.0,SSW,5.8,-,N/A,,Clear,210,2013-01-05 16:14:00
11:54 AM,27.7,20.3,74,30.30,7.0,SW,6.9,-,N/A,,Clear,230,2013-01-05 16:54:00
12:14 PM,28.8,21.6,74,30.28,7.0,SW,9.2,-,N/A,,Clear,220,2013-01-05 17:14:00
12:34 PM,29.8,22.6,75,30.27,10.0,SW,9.2,-,N/A,,Clear,220,2013-01-05 17:34:00
12:54 PM,31.5,23.0,71,30.25,10.0,SSW,9.2,-,N/A,,Clear,200,2013-01-05 17:54:00
1:14 PM,32.0,23.4,70,30.24,10.0,SW,9.2,-,N/A,,Clear,220,2013-01-05 18:14:00
1:34 PM,32.9,23.7,69,30.23,10.0,SSW,9.2,-,N/A,,Clear,200,2013-01-05 18:34:00
1:54 PM,32.2,24.1,72,30.22,10.0,SSW,11.5,-,N/A,,Clear,200,2013-01-05 18:54:00
2:13 PM,32.5,24.6,73,30.20,10.0,South,12.7,-,N/A,,Clear,190,2013-01-05 19:13:00
2:34 PM,33.8,24.4,69,30.20,10.0,SSW,10.4,-,N/A,,Clear,200,2013-01-05 19:34:00
2:54 PM,34.0,24.8,69,30.20,10.0,SSW,11.5,-,N/A,,Clear,200,2013-01-05 19:54:00
3:13 PM,33.8,25.3,71,30.19,10.0,SSW,10.4,-,N/A,,Clear,210,2013-01-05 20:13:00
3:34 PM,32.9,25.0,73,30.20,10.0,SW,10.4,-,N/A,,Clear,220,2013-01-05 20:34:00
3:54 PM,33.3,25.5,73,30.19,10.0,SSW,6.9,-,N/A,,Scattered Clouds,200,2013-01-05 20:54:00
4:13 PM,33.3,25.7,74,30.18,10.0,SSW,9.2,-,N/A,,Overcast,210,2013-01-05 21:13:00
4:34 PM,33.3,25.9,74,30.19,10.0,SW,10.4,-,N/A,,Overcast,220,2013-01-05 21:34:00
4:54 PM,33.4,26.4,75,30.18,10.0,SW,9.2,-,N/A,,Overcast,220,2013-01-05 21:54:00
5:14 PM,33.8,26.6,75,30.18,10.0,SSW,10.4,-,N/A,,Overcast,210,2013-01-05 22:14:00
6:14 PM,33.8,27.1,77,30.20,10.0,SW,11.5,-,N/A,,Overcast,220,2013-01-05 23:14:00
6:34 PM,33.8,27.0,76,30.19,10.0,SW,11.5,-,N/A,,Overcast,220,2013-01-05 23:34:00
6:54 PM,33.8,27.0,76,30.17,10.0,SW,11.5,-,N/A,,Overcast,220,2013-01-05 23:54:00
7:14 PM,33.8,26.6,75,30.17,10.0,SW,10.4,-,N/A,,Overcast,220,2013-01-06 00:14:00
7:34 PM,33.8,26.6,75,30.17,10.0,SW,11.5,-,N/A,,Overcast,220,2013-01-06 00:34:00
7:54 PM,33.8,26.4,74,30.16,10.0,SW,10.4,-,N/A,,Overcast,230,2013-01-06 00:54:00
8:14 PM,34.0,25.7,72,30.16,10.0,SW,10.4,-,N/A,,Overcast,230,2013-01-06 01:14:00
8:54 PM,34.0,24.8,69,30.15,10.0,SW,8.1,-,N/A,,Overcast,230,2013-01-06 01:54:00
9:14 PM,33.6,24.8,70,30.15,10.0,SW,8.1,-,N/A,,Overcast,230,2013-01-06 02:14:00
9:34 PM,33.8,24.8,70,30.15,10.0,WSW,9.2,-,N/A,,Overcast,240,2013-01-06 02:34:00
9:54 PM,34.3,24.6,68,30.15,10.0,WSW,10.4,-,N/A,,Overcast,240,2013-01-06 02:54:00
10:14 PM,34.2,24.4,68,30.15,10.0,WSW,9.2,-,N/A,,Overcast,250,2013-01-06 03:14:00
10:34 PM,34.0,24.6,69,30.15,10.0,WSW,6.9,-,N/A,,Overcast,240,2013-01-06 03:34:00
10:54 PM,33.1,24.8,72,30.15,10.0,SW,6.9,-,N/A,,Overcast,230,2013-01-06 03:54:00
11:14 PM,32.7,25.3,74,30.14,10.0,WSW,5.8,-,N/A,,Overcast,240,2013-01-06 04:14:00
11:34 PM,32.9,25.2,73,30.13,10.0,WSW,9.2,-,N/A,,Overcast,240,2013-01-06 04:34:00
11:54 PM,33.1,24.6,71,30.12,10.0,WSW,9.2,-,N/A,,Overcast,250,2013-01-06 04:54:00